[[{"header":{"parameterUnit":"m.s-1","parameterCategory":2,"la1":30.2992,"la2":30.254,"lo1":-89.0895,"lo2":-89.0443,"dy":0.0025,"dx":0.0025,"nx":19,"ny":19,"refTime":"2026-05-15T09:00:00:Z","depth":"0","parameterNumber":2,"parameterNumberName":"U-component_of_CURRENTS"},"data":[0,0,0,-0.2111,-0.2115,-0.228,-0.228,-0.2386,-0.2386,0,0,0,0,0,0,0,0,0,0,0,-0.2051,-0.2052,-0.2111,-0.2115,-0.2279,-0.228,-0.2385,-0.2386,0,0,0,0,0,0,0,0,0,0,0,-0.205,-0.2052,-0.2053,-0.2116,-0.2279,-0.228,-0.2385,-0.2287,0,0,0,0,0,0,0,0,0,0,-0.214,-0.2064,-0.2051,-0.2053,-0.2117,-0.2279,-0.228,-0.2283,-0.2293,-0.2282,0,-0.2314,0,-0.2354,-0.2391,-0.2391,0,0,0,-0.2113,-0.2056,-0.2138,-0.2053,-0.2118,-0.2279,-0.2205,-0.2289,-0.23,-0.2294,-0.2316,-0.2321,-0.2355,-0.2392,-0.2392,-0.2496,-0.2497,0,0,-0.2104,-0.2042,-0.2131,-0.2145,-0.2168,-0.2199,-0.221,-0.2297,-0.2286,-0.2317,-0.2324,-0.2357,-0.2392,-0.2393,-0.2496,-0.2497,0,0,0,-0.2079,-0.2035,-0.2117,-0.2139,-0.2179,-0.2204,-0.2216,-0.2282,-0.232,-0.2326,-0.2358,-0.2392,-0.2393,-0.2495,-0.2496,-0.2509,0,0,0,-0.2074,-0.2023,-0.2112,-0.2072,-0.2178,-0.2238,-0.2198,-0.2314,-0.2326,-0.2358,-0.2392,-0.2394,-0.2494,-0.2496,-0.2508,-0.2426,0,0,0,-0.2042,-0.2018,-0.2049,-0.2069,-0.2147,-0.2238,-0.228,-0.2318,-0.2345,-0.2391,-0.2394,-0.2494,-0.2495,-0.2506,-0.2427,-0.22,0,0,0,-0.1958,-0.2038,-0.2046,-0.2135,-0.2146,-0.2301,-0.2281,-0.237,-0.2416,-0.2393,-0.2495,-0.2496,-0.2505,-0.2427,-0.2204,-0.2085,-0.2056,0,0,-0.2029,-0.2043,-0.2104,-0.2118,-0.2275,-0.2277,-0.2385,-0.2423,-0.2428,-0.2456,-0.246,-0.2508,-0.2427,-0.22,-0.2168,-0.2136,0,0,0,-0.2109,-0.2129,-0.2186,-0.226,-0.2375,-0.2415,-0.247,-0.246,-0.2489,-0.2463,-0.2534,-0.248,-0.2336,-0.2276,-0.2253,-0.2305,-0.2503,-0.2502,-0.2502,-0.2038,-0.214,-0.2234,-0.2352,-0.243,-0.2509,-0.2521,-0.251,-0.2544,-0.2546,-0.2515,-0.2377,-0.2327,-0.2304,-0.2366,-0.2587,-0.2587,-0.2587,-0.2587,-0.2087,-0.2101,-0.2224,-0.2351,-0.2425,-0.2496,-0.2534,-0.2538,-0.2434,-0.2526,-0.2386,-0.2326,-0.2277,-0.2353,-0.2588,-0.2588,-0.2588,-0.2588,-0.2588,-0.1981,-0.1997,-0.2118,-0.2249,-0.2318,-0.2419,-0.2307,-0.236,-0.2372,-0.2304,-0.2076,-0.2075,-0.2099,-0.2183,-0.2182,-0.218,-0.2179,-0.2178,-0.2178,-0.1777,-0.1912,-0.1928,-0.2093,-0.2109,-0.2101,-0.2105,-0.2015,-0.194,-0.1994,-0.1992,-0.207,-0.2248,-0.2215,-0.2158,-0.2161,-0.2164,-0.2166,-0.2167,-0.1546,-0.1617,-0.1624,-0.1648,-0.1687,-0.1563,-0.1632,-0.1488,-0.1407,-0.1342,-0.1702,-0.1796,-0.1715,-0.1737,-0.1691,-0.1498,-0.1498,-0.1498,-0.1498,-0.1296,-0.1368,-0.1276,-0.1252,-0.121,-0.1266,-0.0959,-0.0995,-0.1214,-0.1362,-0.1464,-0.1638,-0.1663,-0.1591,-0.1616,-0.1573,-0.1355,-0.1355,-0.1355,-0.1063,-0.1087,-0.0927,-0.1012,-0.1001,-0.0907,-0.065,-0.0636,-0.109,-0.1363,-0.1556,-0.1562,-0.1846,-0.188,-0.1802,-0.1833,-0.1774,0,0]},{"header":{"parameterUnit":"m.s-1","parameterCategory":2,"la1":30.2992,"la2":30.254,"lo1":-89.0895,"lo2":-89.0443,"dy":0.0025,"dx":0.0025,"nx":19,"ny":19,"refTime":"2026-05-15T09:00:00:Z","depth":"0","parameterNumber":3,"parameterNumberName":"V-component_of_CURRENTS"},"data":[0,0,0,0.0241,0.0242,0.0333,0.0333,0.0406,0.0406,0,0,0,0,0,0,0,0,0,0,0,0.0201,0.0201,0.0241,0.0242,0.0333,0.0333,0.0406,0.0406,0,0,0,0,0,0,0,0,0,0,0,0.0201,0.0201,0.0201,0.0243,0.0333,0.0333,0.0406,0.0354,0,0,0,0,0,0,0,0,0,0,0.0273,0.0235,0.0201,0.0201,0.0243,0.0332,0.0334,0.0352,0.0357,0.0346,0,0.0339,0,0.0366,0.0408,0.0408,0,0,0,0.0265,0.023,0.0251,0.0201,0.0244,0.0332,0.0298,0.0355,0.0361,0.0352,0.034,0.0344,0.0368,0.0408,0.0408,0.0372,0.0371,0,0,0.026,0.0227,0.0247,0.0254,0.0239,0.0295,0.0301,0.0359,0.0353,0.0341,0.0346,0.0369,0.0408,0.0408,0.0372,0.0372,0,0,0,0.023,0.0223,0.0245,0.025,0.0266,0.0297,0.0304,0.0351,0.0356,0.0347,0.037,0.0408,0.0409,0.0373,0.0372,0.0278,0,0,0,0.0228,0.0205,0.0241,0.0225,0.0264,0.0315,0.0294,0.0353,0.0361,0.0369,0.0408,0.0409,0.0374,0.0373,0.0282,0.0321,0,0,0,0.0202,0.0203,0.0204,0.0222,0.0252,0.0315,0.0326,0.0356,0.0373,0.0408,0.0409,0.0374,0.0373,0.0285,0.0325,0.0385,0,0,0,0.0181,0.011,0.0202,0.0126,0.0251,0.0247,0.0326,0.0335,0.0354,0.0409,0.0374,0.0372,0.0286,0.0327,0.0386,0.0335,0.0327,0,0,0.0067,0.0096,0.0047,0.013,0.0081,0.0238,0.0211,0.0276,0.0332,0.0357,0.0357,0.028,0.0325,0.0385,0.0252,0.0247,0,0,0,-0.0007,-0.0042,-0.0041,-0.0044,0.0009,0.0111,0.018,0.0224,0.0264,0.0335,0.0278,0.0311,0.0352,0.0321,0.0316,0.0548,0.0366,0.0366,0.0366,-0.0172,-0.0156,-0.0222,-0.018,-0.0136,0.0002,0.0077,0.0158,0.0178,0.0181,0.0227,0.0211,0.017,0.0168,0.0404,0.0179,0.0179,0.0178,0.0178,-0.0342,-0.0366,-0.0319,-0.0372,-0.0232,-0.0202,-0.001,0.0046,0.0146,0.0147,0.0189,0.0215,0.0158,0.0412,0.0172,0.0173,0.0174,0.0174,0.0175,-0.0428,-0.0429,-0.0468,-0.0476,-0.0403,-0.0246,-0.0084,0.0042,0.0114,0.0152,0.0189,0.019,0.043,0.0171,0.0171,0.0171,0.0172,0.0172,0.0172,-0.0458,-0.0497,-0.054,-0.054,-0.0502,-0.034,-0.0091,0.0017,0.0131,0.0156,0.0156,0.0448,0.0213,0.0233,0.0178,0.0177,0.0176,0.0176,0.0175,-0.0484,-0.0506,-0.0568,-0.0572,-0.0485,-0.0338,-0.0134,0.0055,0.0153,0.0174,0.0441,0.0169,0.0233,0.0235,0.0257,0.0214,0.0214,0.0214,0.0214,-0.0459,-0.0493,-0.0526,-0.0519,-0.0443,-0.0298,-0.0132,0.0037,0.0325,0.0515,0.059,0.056,0.0548,0.0633,0.0627,0.0658,0.0718,0.0719,0.0721,-0.0413,-0.045,-0.0435,-0.0482,-0.0414,-0.026,-0.0127,0.0028,0.0513,0.0771,0.0932,0.0911,0.0896,0.0859,0.1009,0.0981,0.1039,0,0]}],[{"header":{"parameterUnit":"m.s-1","parameterCategory":2,"la1":30.2992,"la2":30.254,"lo1":-89.0895,"lo2":-89.0443,"dy":0.0025,"dx":0.0025,"nx":19,"ny":19,"refTime":"2026-05-15T09:00:00:Z","depth":"2","parameterNumber":2,"parameterNumberName":"U-component_of_CURRENTS"},"data":[0,0,0,-0.1853,-0.1855,-0.1986,-0.1987,-0.2367,-0.237,0,0,0,0,0,0,0,0,0,0,0,-0.1811,-0.1812,-0.1853,-0.1855,-0.1986,-0.1987,-0.2366,-0.237,0,0,0,0,0,0,0,0,0,0,0,-0.1811,-0.1811,-0.1812,-0.1856,-0.1986,-0.1987,-0.2365,-0.2217,0,0,0,0,0,0,0,0,0,0,-0.2065,-0.1983,-0.1811,-0.1812,-0.1856,-0.1986,-0.1987,-0.2208,-0.2227,-0.2362,0,-0.2372,0,-0.2379,-0.2399,-0.2401,0,0,0,-0.1872,-0.1967,-0.2008,-0.1812,-0.1857,-0.1986,-0.1932,-0.2217,-0.2238,-0.2388,-0.2377,-0.239,-0.2385,-0.2402,-0.2404,-0.2569,-0.2567,0,0,-0.1865,-0.1842,-0.1992,-0.202,-0.1884,-0.1928,-0.1936,-0.2228,-0.225,-0.2378,-0.2398,-0.2391,-0.2405,-0.2408,-0.257,-0.2568,0,0,0,-0.1833,-0.1837,-0.1866,-0.2006,-0.2012,-0.1931,-0.194,-0.2237,-0.2247,-0.2401,-0.2396,-0.2407,-0.2413,-0.2571,-0.2569,-0.2507,0,0,0,-0.1829,-0.1817,-0.1863,-0.1852,-0.2005,-0.2096,-0.1943,-0.2226,-0.2259,-0.2394,-0.2407,-0.2417,-0.2573,-0.257,-0.2513,-0.2569,0,0,0,-0.1806,-0.1815,-0.1827,-0.185,-0.1899,-0.209,-0.2116,-0.2232,-0.2257,-0.2401,-0.2418,-0.2574,-0.2571,-0.2517,-0.2573,-0.2662,0,0,0,-0.1784,-0.1807,-0.1826,-0.1883,-0.1897,-0.1976,-0.2114,-0.2205,-0.2313,-0.241,-0.2573,-0.2569,-0.2518,-0.2576,-0.2662,-0.2448,-0.2428,0,0,-0.18,-0.1809,-0.185,-0.187,-0.1946,-0.1959,-0.2036,-0.2233,-0.2305,-0.2501,-0.2503,-0.2511,-0.2573,-0.2662,-0.2254,-0.2241,0,0,0,-0.1849,-0.1873,-0.1901,-0.196,-0.2007,-0.205,-0.2164,-0.2191,-0.2298,-0.235,-0.2459,-0.2502,-0.2561,-0.2429,-0.2416,-0.2553,-0.2554,-0.2554,-0.2555,-0.1833,-0.1893,-0.1948,-0.2014,-0.2058,-0.2121,-0.2157,-0.2209,-0.2282,-0.2255,-0.2409,-0.2385,-0.2231,-0.2223,-0.2317,-0.2317,-0.2316,-0.2316,-0.2316,-0.1855,-0.1892,-0.1966,-0.2028,-0.208,-0.2131,-0.2198,-0.2212,-0.231,-0.2288,-0.2347,-0.2315,-0.2207,-0.231,-0.2311,-0.2312,-0.2313,-0.2313,-0.2313,-0.1817,-0.1842,-0.1882,-0.1958,-0.2036,-0.2114,-0.2223,-0.2273,-0.2308,-0.2351,-0.2295,-0.2293,-0.2465,-0.2396,-0.2397,-0.2397,-0.2398,-0.2398,-0.2399,-0.1749,-0.1795,-0.1816,-0.1886,-0.1934,-0.2041,-0.2246,-0.2324,-0.2329,-0.2271,-0.2269,-0.2416,-0.2413,-0.2471,-0.2407,-0.2405,-0.2404,-0.2404,-0.2403,-0.1724,-0.1708,-0.1747,-0.1775,-0.1896,-0.1916,-0.2155,-0.2234,-0.2342,-0.2262,-0.2227,-0.2229,-0.2273,-0.2278,-0.2331,-0.2237,-0.2237,-0.2237,-0.2237,-0.1686,-0.1685,-0.1737,-0.1767,-0.1824,-0.1883,-0.1897,-0.1917,-0.198,-0.1919,-0.1933,-0.1784,-0.1796,-0.1811,-0.1826,-0.187,-0.1656,-0.1655,-0.1655,-0.1677,-0.17,-0.1717,-0.1742,-0.1786,-0.1814,-0.1653,-0.1481,-0.1463,-0.1639,-0.1902,-0.2185,-0.1995,-0.2003,-0.2052,-0.2066,-0.2147,0,0]},{"header":{"parameterUnit":"m.s-1","parameterCategory":2,"la1":30.2992,"la2":30.254,"lo1":-89.0895,"lo2":-89.0443,"dy":0.0025,"dx":0.0025,"nx":19,"ny":19,"refTime":"2026-05-15T09:00:00:Z","depth":"2","parameterNumber":3,"parameterNumberName":"V-component_of_CURRENTS"},"data":[0,0,0,-0.0203,-0.0202,-0.0168,-0.0167,0.0179,0.0183,0,0,0,0,0,0,0,0,0,0,0,-0.0208,-0.0208,-0.0203,-0.0202,-0.0168,-0.0167,0.0178,0.0183,0,0,0,0,0,0,0,0,0,0,0,-0.0208,-0.0208,-0.0208,-0.0202,-0.0168,-0.0167,0.0177,0.008,0,0,0,0,0,0,0,0,0,0,0.001,-0.0056,-0.0208,-0.0208,-0.0202,-0.0168,-0.0167,0.0072,0.0086,0.0245,0,0.0238,0,0.0219,0.0212,0.0213,0,0,0,-0.0187,-0.0069,-0.0049,-0.0208,-0.0202,-0.0168,-0.0179,0.0078,0.0094,0.0265,0.0242,0.0253,0.0224,0.0214,0.0216,0.0412,0.0411,0,0,-0.0189,-0.0197,-0.0061,-0.004,-0.02,-0.018,-0.0178,0.0084,0.0101,0.0243,0.0259,0.023,0.0217,0.022,0.0413,0.0412,0,0,0,-0.0205,-0.0199,-0.0192,-0.0051,-0.0069,-0.018,-0.0177,0.0089,0.0093,0.0262,0.0234,0.022,0.0225,0.0414,0.0412,0.0258,0,0,0,-0.0205,-0.0209,-0.0193,-0.0197,-0.0077,-0.0034,-0.0178,0.0074,0.0102,0.0232,0.022,0.0229,0.0415,0.0413,0.0265,0.0207,0,0,0,-0.0208,-0.0209,-0.0208,-0.0198,-0.0191,-0.0041,-0.0024,0.0078,0.0087,0.0213,0.023,0.0416,0.0414,0.0271,0.0217,0.025,0,0,0,-0.0213,-0.0241,-0.0208,-0.0234,-0.0191,-0.0195,-0.0027,0.0004,0.0089,0.0222,0.0415,0.0413,0.0273,0.0223,0.0254,0.041,0.0402,0,0,-0.0259,-0.0247,-0.0263,-0.0233,-0.0273,-0.0198,-0.0199,-0.0014,0.0114,0.0358,0.036,0.0262,0.0217,0.0251,0.0262,0.0259,0,0,0,-0.0284,-0.0303,-0.0308,-0.0316,-0.0295,-0.0278,-0.0142,-0.0072,0.0072,0.015,0.0254,0.0231,0.0257,0.036,0.0356,0.04,0.0401,0.0401,0.0401,-0.0366,-0.0357,-0.0401,-0.0391,-0.038,-0.0315,-0.0274,-0.0143,0.0003,0.0006,0.0097,0.0005,0.0107,0.0107,0.0086,0.0086,0.0085,0.0084,0.0084,-0.0464,-0.0505,-0.0475,-0.0516,-0.0476,-0.0454,-0.0339,-0.0267,-0.013,-0.0059,-0.0024,0.018,0.0095,0.0072,0.0074,0.0076,0.0077,0.0078,0.0079,-0.0534,-0.0563,-0.0562,-0.0609,-0.0616,-0.0556,-0.0521,-0.042,-0.0262,-0.0241,-0.0017,-0.0011,-0.0033,-0.0194,-0.0194,-0.0195,-0.0195,-0.0195,-0.0195,-0.0626,-0.0633,-0.0699,-0.0719,-0.0747,-0.0749,-0.0636,-0.0518,-0.0291,-0.0158,-0.0154,-0.0086,-0.0077,-0.0046,-0.0198,-0.0197,-0.0197,-0.0197,-0.0196,-0.077,-0.0753,-0.0871,-0.0908,-0.0953,-0.0933,-0.079,-0.044,-0.0284,-0.0102,-0.0062,-0.0064,0.003,0.0036,0.0072,-0.004,-0.004,-0.004,-0.004,-0.0878,-0.0872,-0.1061,-0.1139,-0.1164,-0.1044,-0.0801,-0.0436,-0.0096,0.0005,0.0002,0.0056,0.0052,0.015,0.0154,0.0194,0.0112,0.0112,0.0112,-0.1005,-0.1047,-0.1212,-0.1258,-0.1272,-0.1125,-0.0855,-0.0395,0.0031,0.0107,-0.0085,-0.0008,0.007,0.0062,0.0219,0.0222,0.0289,0,0]}],[{"header":{"parameterUnit":"m.s-1","parameterCategory":2,"la1":30.2992,"la2":30.254,"lo1":-89.0895,"lo2":-89.0443,"dy":0.0025,"dx":0.0025,"nx":19,"ny":19,"refTime":"2026-05-15T09:00:00:Z","depth":"4","parameterNumber":2,"parameterNumberName":"U-component_of_CURRENTS"},"data":[0,0,0,-0.1459,-0.1463,-0.1646,-0.1647,-0.1703,-0.1703,0,0,0,0,0,0,0,0,0,0,0,-0.1392,-0.1393,-0.1459,-0.1463,-0.1646,-0.1647,-0.1703,-0.1703,0,0,0,0,0,0,0,0,0,0,0,-0.1391,-0.1393,-0.1394,-0.1464,-0.1646,-0.1647,-0.1703,-0.1609,0,0,0,0,0,0,0,0,0,0,-0.1453,-0.1419,-0.1392,-0.1394,-0.1465,-0.1645,-0.1647,-0.1606,-0.1614,-0.157,0,-0.1607,0,-0.1656,-0.1703,-0.1703,0,0,0,-0.1461,-0.1412,-0.1461,-0.1395,-0.1467,-0.1645,-0.1563,-0.1612,-0.1621,-0.158,-0.1609,-0.1613,-0.1656,-0.1703,-0.1703,-0.1746,-0.1746,0,0,-0.1451,-0.1421,-0.1455,-0.1467,-0.1522,-0.1557,-0.1569,-0.162,-0.1627,-0.1609,-0.1615,-0.1657,-0.1703,-0.1703,-0.1745,-0.1746,0,0,0,-0.1424,-0.1413,-0.1465,-0.1463,-0.1511,-0.1562,-0.1576,-0.1626,-0.1644,-0.1616,-0.1658,-0.1703,-0.1703,-0.1745,-0.1745,-0.1808,0,0,0,-0.1417,-0.1398,-0.146,-0.1443,-0.1511,-0.1596,-0.158,-0.164,-0.1649,-0.1658,-0.1703,-0.1703,-0.1744,-0.1745,-0.1805,-0.1817,0,0,0,-0.1382,-0.1394,-0.1418,-0.1441,-0.1523,-0.1597,-0.1619,-0.1644,-0.1673,-0.1703,-0.1703,-0.1744,-0.1745,-0.1802,-0.1813,-0.1828,0,0,0,-0.134,-0.138,-0.1418,-0.1485,-0.1521,-0.1632,-0.162,-0.1694,-0.1725,-0.1703,-0.1744,-0.1745,-0.1801,-0.181,-0.1826,-0.1574,0,0,0,-0.1363,-0.1382,-0.1425,-0.1463,-0.1568,-0.1606,-0.1705,-0.1735,-0.1722,-0.1712,-0.1716,-0.1806,-0.1812,-0.1828,-0.1643,0,0,0,0,-0.1415,-0.1448,-0.1486,-0.1564,-0.164,-0.1711,-0.1761,-0.1781,-0.1812,-0.1748,-0.1811,-0.1813,-0.1821,-0.1668,-0.1751,-0.1751,-0.1751,-0.175,-0.175,-0.1395,-0.1462,-0.1532,-0.1622,-0.1689,-0.1786,-0.1837,-0.1866,-0.1851,-0.1878,-0.1869,-0.1928,-0.177,-0.1881,-0.1882,-0.1882,-0.1882,-0.1883,-0.1883,-0.1416,-0.1449,-0.1548,-0.1636,-0.1722,-0.1802,-0.1897,-0.192,-0.1966,-0.1944,-0.1948,-0.1751,-0.1889,-0.1888,-0.1887,-0.1886,-0.1886,-0.1885,-0.1885,-0.1369,-0.139,-0.1468,-0.1576,-0.1683,-0.1794,-0.1857,-0.1946,-0.1997,-0.2022,-0.1835,-0.196,-0.1948,-0.2021,-0.2021,-0.2022,-0.2022,-0.2022,-0.2022,-0.1262,-0.1342,-0.1382,-0.1509,-0.157,-0.1671,-0.1832,-0.1873,-0.1964,-0.1865,-0.203,-0.1974,-0.1969,-0.1955,-0.2024,-0.2024,-0.2023,-0.2023,-0.2023,-0.1189,-0.1212,-0.1255,-0.1309,-0.1431,-0.1486,-0.1679,-0.1729,-0.1752,-0.1724,-0.1774,-0.1786,-0.1732,-0.1733,-0.1709,-0.1708,-0.1705,-0.1702,0,-0.1101,-0.1127,-0.1145,-0.1177,-0.1213,-0.1363,-0.1351,-0.1448,-0.1549,-0.1491,-0.1742,-0.1796,-0.1803,-0.174,-0.1736,-0.1704,0,0,0,-0.1038,-0.1054,-0.1028,-0.1075,-0.1104,-0.1184,-0.1335,-0.1307,-0.1545,-0.1511,-0.1626,-0.1646,-0.1871,-0.2031,-0.1976,-0.197,-0.1945,0,0]},{"header":{"parameterUnit":"m.s-1","parameterCategory":2,"la1":30.2992,"la2":30.254,"lo1":-89.0895,"lo2":-89.0443,"dy":0.0025,"dx":0.0025,"nx":19,"ny":19,"refTime":"2026-05-15T09:00:00:Z","depth":"4","parameterNumber":3,"parameterNumberName":"V-component_of_CURRENTS"},"data":[0,0,0,-0.017,-0.017,-0.016,-0.016,-0.0137,-0.0137,0,0,0,0,0,0,0,0,0,0,0,-0.0171,-0.0171,-0.017,-0.017,-0.016,-0.016,-0.0137,-0.0137,0,0,0,0,0,0,0,0,0,0,0,-0.0171,-0.0171,-0.0171,-0.017,-0.016,-0.016,-0.0137,-0.0145,0,0,0,0,0,0,0,0,0,0,-0.0156,-0.0162,-0.0171,-0.0171,-0.017,-0.016,-0.016,-0.0145,-0.0145,-0.0141,0,-0.0144,0,-0.0145,-0.0136,-0.0136,0,0,0,-0.0162,-0.0163,-0.0161,-0.0171,-0.017,-0.016,-0.0162,-0.0145,-0.0144,-0.014,-0.0143,-0.0143,-0.0144,-0.0135,-0.0135,-0.0097,-0.0097,0,0,-0.0163,-0.0167,-0.0162,-0.016,-0.0173,-0.0163,-0.0162,-0.0144,-0.0145,-0.0143,-0.0142,-0.0144,-0.0135,-0.0135,-0.0097,-0.0097,0,0,0,-0.017,-0.0167,-0.0165,-0.0161,-0.0163,-0.0163,-0.0162,-0.0145,-0.0145,-0.0142,-0.0144,-0.0135,-0.0135,-0.0098,-0.0097,-0.0126,0,0,0,-0.017,-0.0172,-0.0166,-0.0168,-0.0163,-0.0156,-0.0163,-0.0146,-0.0144,-0.0144,-0.0135,-0.0135,-0.0098,-0.0097,-0.0126,-0.0191,0,0,0,-0.017,-0.0172,-0.0172,-0.0168,-0.0168,-0.0156,-0.0155,-0.0146,-0.0146,-0.0136,-0.0135,-0.0098,-0.0097,-0.0126,-0.0189,-0.0156,0,0,0,-0.0172,-0.0196,-0.0173,-0.02,-0.0168,-0.0179,-0.0155,-0.0162,-0.0157,-0.0135,-0.0098,-0.0097,-0.0126,-0.0188,-0.0155,-0.0176,0,0,0,-0.0208,-0.02,-0.0217,-0.0197,-0.0233,-0.018,-0.0185,-0.0169,-0.0138,-0.0102,-0.0102,-0.0126,-0.0189,-0.0156,-0.0131,0,0,0,0,-0.0233,-0.0249,-0.0255,-0.0267,-0.0257,-0.0247,-0.0205,-0.0161,-0.0117,-0.0133,-0.0102,-0.0142,-0.012,-0.0128,-0.0093,-0.0094,-0.0094,-0.0094,-0.0094,-0.0287,-0.0289,-0.0329,-0.0328,-0.0327,-0.0281,-0.0251,-0.018,-0.0136,-0.0102,-0.0146,-0.0124,-0.0131,-0.0094,-0.0095,-0.0095,-0.0095,-0.0095,-0.0095,-0.036,-0.0388,-0.0386,-0.0427,-0.0402,-0.0391,-0.0298,-0.0243,-0.0159,-0.0132,-0.0105,-0.0135,-0.0097,-0.0097,-0.0096,-0.0096,-0.0096,-0.0096,-0.0096,-0.04,-0.0418,-0.0439,-0.0492,-0.0511,-0.0471,-0.0447,-0.0354,-0.0229,-0.021,-0.0171,-0.0141,-0.016,-0.017,-0.017,-0.017,-0.017,-0.017,-0.017,-0.0434,-0.0459,-0.0519,-0.0565,-0.0602,-0.0612,-0.0533,-0.0452,-0.0324,-0.024,-0.0221,-0.0149,-0.0147,-0.0163,-0.0172,-0.0172,-0.0172,-0.0172,-0.0172,-0.0499,-0.0503,-0.0594,-0.0645,-0.0726,-0.0723,-0.0658,-0.0476,-0.0384,-0.0272,-0.0221,-0.0218,-0.0212,-0.0208,-0.0226,-0.0255,-0.0255,-0.0256,0,-0.0536,-0.0548,-0.067,-0.0759,-0.0819,-0.0793,-0.0685,-0.0564,-0.0384,-0.0396,-0.0381,-0.0334,-0.0327,-0.0331,-0.0327,-0.0355,0,0,0,-0.0589,-0.0613,-0.071,-0.0794,-0.0866,-0.0741,-0.0656,-0.0586,-0.0429,-0.0302,-0.0264,-0.0262,-0.023,-0.0178,-0.0162,-0.0159,-0.0184,0,0]}]]